Regional Weather Roundup
Issued by NWS Albany, NY

Current Version | Previous Version | Text Only | Print | Product List | Glossary On
Versions: 1 2 3 4 5 6 7 8 9 10 11 12 13 14 15 16 17 18 19 20 21 22 23 24 25 26 27 28 29
000 ASUS41 KALY 252210 RWRALY NEW YORK STATE HOURLY WEATHER ROUNDUP NATIONAL WEATHER SERVICE ALBANY NY 600 PM EDT THU AUG 25 2016 NOTE: "FAIR" INDICATES FEW OR NO CLOUDS BELOW 12,000 FEET WITH NO SIGNIFICANT WEATHER AND/OR NO OBSTRUCTIONS TO VISIBILITY. NYZ032-033-038>043-046>054-057>066-NYZ062>081-082-084-252300- EAST CITY SKY/WX TMP DP RH WIND PRES REMARKS ALBANY CLOUDY 75 73 93 SE3 29.96S GLENS FALLS CLOUDY 75 69 81 S6 29.95F POUGHKEEPSIE CLOUDY 77 67 71 S5 29.98S NEWBURGH PTSUNNY 81 72 74 SW7 30.01F MONTGOMERY CLOUDY 81 72 74 S10 29.99S WHITE PLAINS PTSUNNY 78 66 66 S7 30.02S ISLIP PTSUNNY 78 67 68 S13G22 30.02F NEW YORK CITY CLOUDY 80 69 69 S15 30.00S CENTRAL PARK N/A 81 70 69 MISG N/A $$ NYZ005>009-017-018-044>046-055-056-252300- CENTRAL CITY SKY/WX TMP DP RH WIND PRES REMARKS FULTON CLOUDY 82 71 69 W5 29.93R SYRACUSE PTSUNNY 83 72 69 W6 29.92S ROME PTSUNNY 79 73 82 SE5 29.94F ELMIRA MOSUNNY 86 69 56 W5 29.96S HX 90 BINGHAMTON MOSUNNY 77 71 82 S6 30.01F MONTICELLO CLOUDY 72 70 94 W6 30.06R $$ NYZ026>034-041>043-087-252300- NORTH CITY SKY/WX TMP DP RH WIND PRES REMARKS WATERTOWN CLOUDY 80 70 71 SW10 29.91S FORT DRUM NOT AVBL MASSENA CLOUDY 82 70 66 SW10 29.87R SARANAC LAKE CLOUDY 75 66 73 SW9 29.96S PLATTSBURGH PTSUNNY 81 71 71 S8 29.87S $$ NYZ001>004-010>016-019>021-085-252300- WEST CITY SKY/WX TMP DP RH WIND PRES REMARKS NIAGARA FALLS LGT RAIN 80 70 71 SW10 29.94R BUFFALO CLOUDY 80 69 69 W8 29.95R DUNKIRK MOSUNNY 80 70 71 W6 29.96R JAMESTOWN PTSUNNY 81 68 65 S12 30.01S WELLSVILLE MOSUNNY 80 68 66 SW8 30.06R ROCHESTER PTSUNNY 85 70 60 W12 29.94R PENN YAN SUNNY 85 66 53 W8 29.97R $$ KEY WCI = WIND CHILL INDEX VSB = VISIBILITY HX = HEAT INDEX $$

USA.gov is the U.S. government's official web portal to all federal, state and local government web resources and services.